Flag for Taiwan Weather past 2 weeks in Kaohsiung, Taiwan

Now
63 °F

Partly sunny.


Feels Like: 63 °F
Forecast: 59 / 71 °F
Wind: 9 mph from North

Location: Kaohsiung International Airport

Current Time: Dec 20, 2014 at 8:37:08 AM

Latest Report: Dec 20, 2014 at 7:30 AM


Visibility: 5 mi

Pressure: 30.07 "Hg

Humidity: 83%

Dew point: 57 °F

Location of KaohsiungLocation

Historic Weather in Kaohsiung — Graph

°F

Kaohsiung temperature yesterday

Maximum temperature yesterday: 68 °F (at 11:00 AM)
Minimum temperature yesterday: 61 °F (at 5:00 AM)
Average temperature yesterday: 64 °F

Past Weeks' High & Low Weather Summary

 TemperatureHumidityPressure
High82 °F (Dec 10, 1:00 PM)94% (Dec 5, 7:00 AM)30.30 "Hg (Dec 5, 7:00 AM)
Low57 °F (Dec 17, 5:00 AM)39% (Dec 8, 3:00 PM)29.95 "Hg (Dec 11, 2:00 PM)
Average69 °F67%30.12 "Hg
* Reported Dec 5 7:00 AM — Dec 20 7:30 AM, Kaohsiung, Weather by CustomWeather, © 2014

Note: Actual official high and low records may vary slightly from our data, if they occured in-between our weather recording intervals... More about our weather records

Advertising

Kaohsiung weather history for previous 24 hours

 ConditionsComfort  
Time TempWeatherWind HumidityBarometerVisibility
7:30 AM
Dec 20
63 °FPartly sunny.9 mph83%30.07 "Hg5 mi
7:00 AM63 °FPartly sunny.10 mph83%30.07 "Hg5 mi
6:30 AM63 °FPassing clouds.10 mph83%30.07 "Hg5 mi
6:00 AM63 °FPassing clouds.12 mph83%30.04 "Hg4 mi
5:00 AM63 °FPassing clouds.9 mph88%30.07 "Hg5 mi
4:51 AM63 °FPassing clouds.8 mph88%30.07 "Hg5 mi
4:00 AM63 °FLight rain. Passing clouds.6 mph94%30.07 "Hg5 mi
3:00 AM63 °FSprinkles. Passing clouds.6 mph88%30.07 "Hg2 mi
2:53 AM64 °FSprinkles. Passing clouds.8 mph83%30.09 "Hg2 mi
2:00 AM64 °FPassing clouds.15 mph73%30.09 "HgN/A
1:00 AM64 °FPassing clouds.14 mph73%30.09 "Hg5 mi
12:00 AM64 °FPassing clouds.12 mph73%30.12 "Hg6 mi
11:30 PM
Dec 19
64 °FPassing clouds.12 mph73%30.12 "Hg6 mi
11:00 PM64 °FPartly cloudy.14 mph73%30.12 "Hg6 mi
10:30 PM64 °FPartly cloudy.9 mph73%30.12 "Hg6 mi
10:00 PM64 °FPartly cloudy.9 mph73%30.15 "Hg6 mi
9:30 PM64 °FPartly cloudy.13 mph73%30.15 "Hg6 mi
9:00 PM64 °FPartly cloudy.9 mph73%30.15 "Hg6 mi
8:30 PM64 °FPartly cloudy.9 mph73%30.15 "Hg6 mi
8:00 PM64 °FPartly cloudy.9 mph73%30.15 "Hg6 mi
7:30 PM64 °FPartly cloudy.10 mph73%30.12 "Hg6 mi
7:00 PM63 °FPassing clouds.9 mph77%30.12 "Hg5 mi
6:30 PM63 °FLight rain. Passing clouds.10 mph77%30.12 "Hg3 mi
6:00 PM63 °FLight rain. Passing clouds.12 mph77%30.12 "Hg3 mi
5:30 PM63 °FPassing clouds.14 mph77%30.12 "Hg3 mi
5:00 PM64 °FPartly sunny.16 mph73%30.12 "Hg3 mi
4:30 PM64 °FLight rain. Partly sunny.16 mph68%30.12 "Hg3 mi
4:00 PM64 °FPartly sunny.14 mph68%30.12 "Hg4 mi
3:30 PM64 °FPartly sunny.17 mph68%30.12 "Hg3 mi
3:00 PM64 °FPartly sunny.12 mph68%30.12 "Hg3 mi
2:30 PM64 °FPartly sunny.12 mph73%30.12 "Hg2 mi
2:00 PM64 °FLight rain. Partly sunny.13 mph73%30.15 "Hg2 mi
1:30 PM63 °FLight rain. Partly sunny.15 mph77%30.15 "Hg2 mi
1:00 PM66 °FLight rain. Partly sunny.13 mph64%30.18 "Hg2 mi
12:30 PM68 °FLight rain. Partly sunny.10 mph60%30.18 "Hg2 mi
12:00 PM68 °FLight rain. Partly sunny.8 mph64%30.18 "Hg2 mi
11:30 AM68 °FBroken clouds.9 mph56%30.18 "Hg3 mi
11:00 AM68 °FLight rain. Broken clouds.8 mph60%30.21 "Hg2 mi
10:30 AM66 °FBroken clouds.8 mph64%30.21 "Hg3 mi
10:00 AM66 °FBroken clouds.9 mph60%30.21 "Hg3 mi
9:30 AM66 °FBroken clouds.7 mph64%30.21 "Hg3 mi
9:00 AM66 °FBroken clouds.7 mph64%30.21 "Hg3 mi
8:30 AM66 °FBroken clouds.6 mph64%30.18 "Hg4 mi
8:00 AM64 °FBroken clouds.3 mph68%30.18 "Hg4 mi
Weather by CustomWeather, © 2014

See weather overviewHow to use our weather pages